Main page
METAR-TAF:

METAR-TAF

Airports :

Dehradun, India

Jolly Grant Airport

latitude: 30-11-23N, longitude: 78-10-49E, elevation: 558 m

Current weather observation

The report was made 6 hours and 15 minutes ago, at 13:00 UTC
Calm wind
Temperature 25°C
Humidity 79%
Pressure 1007 hPa
Visibility: 2000 m
haze

METAR: VIDN 211300Z 00000KT 2000 HZ NSC 25/21 Q1007

Time: 00:45 (19:15 UTC)


TAF: missing

Weather observations and forecasts of more than 4000 airports (METAR and TAF reports).

The available stations are represented by yellow and red dots on the map.

Hover mouse over dot to see the name of the station.

Then click to see weather observations and forecasts.

To change the map : click on the green buttons with a black cross to zoom in, on the green button with a dash to zoom out, or on the green arrows for adjacent maps.


METAR-TAF: